Regional Weather Roundup
Issued by NWS

Home | Current Version | Previous Version | Graphics & Text | Print | Product List | Glossary On
Versions: 1 2 3 4 5 6 7 8 9 10 11 12 13 14 15 16 17 18 19 20 21 22 23 24 25 26 27 28 29 30 31 32 33 34 35 36 37 38 39 40 41 42 43 44 45 46 47 48 49 50
000
ASUS43 KIND 091559
RWRIN

WEATHER ROUNDUP FOR INDIANA
NATIONAL WEATHER SERVICE INDIANAPOLIS IN
1100 AM EST FRI DEC 09 2016

NOTE: "FAIR" INDICATES FEW OR NO CLOUDS BELOW 12,000 FEET WITH NO
SIGNIFICANT WEATHER AND/OR OBSTRUCTIONS TO VISIBILITY.

* - STATION DOES NOT REPORT WEATHER SUCH AS PRECIPITATION OR FOG.

+ - STATION NOT QUALITY CONTROLLED BY THE NATIONAL WEATHER SERVICE.
    USE DATA WITH CAUTION...ESPECIALLY DEWPOINT AND RELATIVE
    HUMIDITY OBSERVATIONS.

INZ001>003-010>013-019-020-091700-
NORTHWEST INDIANA

CITY           SKY/WX    TMP DP  RH WIND       PRES   REMARKS
GARY /AIRPORT/ CLOUDY    27  18  69 W8        30.55R WCI  18

$$

LMZ046-743>745-091700-
SOUTHERN LAKE MICHIGAN

STATION/POSITION TIME  TEMP    WIND        PRES    WAVE
                       AIR SEA DIR/SP/G            HT
                 (UTC) (F)     (DEG/KT/KT) (MB)    (FT)

$$

INZ004-005-014>016-021>024-091700-
NORTH CENTRAL INDIANA

CITY           SKY/WX    TMP DP  RH WIND       PRES   REMARKS
ELKHART        MOSUNNY   28  21  74 W14       30.46R WCI  17
GOSHEN         CLOUDY    28  21  75 W14       30.46R WCI  17
SOUTH BEND     LGT SNOW  25  22  88 W7        30.48R FOG     WCI  17

$$

INZ006>009-017-018-025>027-091700-
NORTHEAST INDIANA

CITY           SKY/WX    TMP DP  RH WIND       PRES   REMARKS
ANGOLA *+      CLOUDY    25  21  86 W7        30.42S WCI  17
FORT WAYNE     FLURRIES  26  19  74 W14       30.48R WCI  14
KENDALLVILLE + CLOUDY    26  21  83 W9        30.44R WCI  16

$$

INZ028-029-035-036-043>045-051>053-091700-
WEST CENTRAL INDIANA

CITY           SKY/WX    TMP DP  RH WIND       PRES   REMARKS
CRAWFORDSVL +  CLOUDY    22  17  81 W12       30.56R WCI  11
GREENCASTLE +  CLOUDY    25  18  74 SW5       30.57S WCI  19
LAFAYETTE      CLOUDY    24  18  77 W12       30.56R WCI  13
TERRE HAUTE    CLOUDY    25  12  58 W8        30.60S WCI  16

$$

INZ030>032-037>040-046>048-054>057-064-065-091700-
CENTRAL INDIANA

CITY           SKY/WX    TMP DP  RH WIND       PRES   REMARKS
COLUMBUS       FLURRIES  23  16  74 W14       30.60R WCI  11
GREENWOOD *+   CLOUDY    24  17  74 W10G16    30.56R WCI  14
INDIANAPOLIS   PTSUNNY   24  16  71 W12       30.56R WCI  13
-EAGLE CREEK   CLOUDY    25  17  72 W9        30.55R WCI  15
KOKOMO +       CLOUDY    23  19  85 W17       30.53R WCI   9
SHELBYVILLE    CLOUDY    24  15  68 W12       30.55R WCI  13

$$

INZ033-034-041-042-049-050-058-059-091700-
EAST CENTRAL INDIANA

CITY           SKY/WX    TMP DP  RH WIND       PRES   REMARKS
MUNCIE         CLOUDY    23  17  78 W13       30.52R WCI  11

$$

INZ060-061-067>069-081>083-085>088-091700-
SOUTHWEST INDIANA

CITY           SKY/WX    TMP DP  RH WIND       PRES   REMARKS
EVANSVILLE     CLOUDY    26  13  57 W7        30.64S WCI  18
HUNTINGBURG *+ FLURRIES  24  14  65 NW7       30.63S WCI  16

$$

INZ062-063-066-070>080-084-089>092-091700-
SOUTH CENTRAL AND SOUTHEAST INDIANA

CITY           SKY/WX    TMP DP  RH WIND       PRES   REMARKS
BLOOMINGTON    LGT SNOW  22  14  71 VRB5      30.58R WCI  16
MADISON *+     CLOUDY    23  14  68 NW6       30.60S WCI  16
SEYMOUR +      CLOUDY    25  12  58 W9        30.61R WCI  15

$$





USA.gov is the U.S. government's official web portal to all federal, state and local government web resources and services.